Flag for Russia Weather past 2 weeks in Murmansk, Russia

Now
19 °F

Scattered clouds.


Feels Like: 19 °F
Forecast: 10 / 23 °F
Wind: No wind

Location: Murmansk Airport

Current Time: Oct 21, 2014 at 5:04:21 PM

Latest Report: Oct 21, 2014 at 4:00 PM


Visibility: N/A

Pressure: 30.21 "Hg

Humidity: 73%

Dew point: 12 °F

Location of MurmanskLocation

Historic Weather in Murmansk — Graph

°F

Murmansk temperature yesterday

Maximum temperature yesterday: 28 °F (at 12:00 AM)
Minimum temperature yesterday: 21 °F (at 1:30 PM)
Average temperature yesterday: 24 °F

Past Weeks' High & Low Weather Summary

 TemperatureHumidityPressure
High46 °F (Oct 6, 3:00 PM)100% (Oct 10, 6:30 AM)30.57 "Hg (Oct 10, 6:30 AM)
Low0 °F (Oct 21, 9:00 AM)59% (Oct 16, 2:00 PM)29.74 "Hg (Oct 20, 6:00 AM)
Average30 °F85%30.05 "Hg
* Reported Oct 6 3:00 PM — Oct 21 3:30 PM, Murmansk, Weather by CustomWeather, © 2014

Note: Actual official high and low records may vary slightly from our data, if they occured in-between our weather recording intervals... More about our weather records

Advertising

Murmansk weather history for previous 24 hours

 ConditionsComfort  
Time TempWeatherWind HumidityBarometerVisibility
3:30 PM
Oct 21
19 °FSunny.No wind79%30.21 "Hg10 mi
3:00 PM19 °FSunny.No wind73%30.21 "Hg10 mi
2:30 PM19 °FScattered clouds.No wind73%30.21 "HgN/A
2:00 PM18 °FSunny.No wind79%30.18 "Hg10 mi
1:30 PM18 °FScattered clouds.1 mph79%30.18 "HgN/A
1:00 PM14 °FScattered clouds.1 mph79%30.18 "HgN/A
12:30 PM12 °FScattered clouds.3 mph79%30.18 "HgN/A
12:00 PM12 °FSunny.1 mph85%30.15 "Hg10 mi
11:30 AM7 °FSunny.No wind85%30.15 "Hg10 mi
11:00 AM5 °FSunny.1 mph85%30.15 "Hg10 mi
10:30 AM1 °FSunny.1 mph85%30.12 "Hg10 mi
10:00 AM1 °FClear.No wind85%30.12 "Hg10 mi
9:30 AM1 °FClear.1 mph78%30.12 "Hg10 mi
9:00 AM0 °FClear.1 mph84%30.09 "Hg10 mi
8:30 AM1 °FClear.No wind85%30.09 "Hg10 mi
8:00 AM3 °FClear.1 mph85%30.09 "Hg10 mi
7:30 AM1 °FClear.3 mph85%30.07 "Hg10 mi
7:00 AM3 °FClear.3 mph85%30.07 "Hg10 mi
6:30 AM3 °FClear.3 mph85%30.07 "Hg10 mi
6:00 AM1 °FClear.1 mph85%30.04 "Hg10 mi
5:30 AM3 °FClear.1 mph85%30.04 "Hg10 mi
5:00 AM5 °FClear.1 mph85%30.04 "Hg10 mi
4:30 AM5 °FClear.No wind85%30.04 "Hg10 mi
4:00 AM7 °FClear.No wind92%30.01 "Hg10 mi
3:30 AM7 °FPartly cloudy.No wind85%30.01 "HgN/A
3:00 AM9 °FPartly cloudy.No wind85%30.01 "HgN/A
2:30 AM10 °FPartly cloudy.No wind92%29.98 "HgN/A
2:00 AM12 °FPartly cloudy.3 mph85%29.98 "HgN/A
1:30 AM12 °FPartly cloudy.1 mph92%29.95 "HgN/A
1:00 AM14 °FPartly cloudy.No wind92%29.95 "HgN/A
12:30 AM18 °FPartly cloudy.No wind86%29.95 "HgN/A
12:00 AM19 °FPartly cloudy.No wind86%29.92 "HgN/A
11:30 PM
Oct 20
23 °FPartly cloudy.3 mph86%29.92 "HgN/A
11:00 PM23 °FPassing clouds.No wind93%29.92 "Hg5 mi
10:30 PM23 °FPassing clouds.No wind93%29.92 "Hg4 mi
10:00 PM25 °FIce fog.No wind93%29.89 "Hg3 mi
9:30 PM25 °FPassing clouds.1 mph93%29.89 "Hg4 mi
9:00 PM25 °FIce fog.1 mph93%29.86 "Hg3 mi
8:30 PM25 °FPassing clouds.No wind93%29.86 "Hg4 mi
8:00 PM25 °FPassing clouds.No wind93%29.86 "Hg4 mi
7:30 PM25 °FPassing clouds.No wind93%29.86 "Hg4 mi
7:00 PM25 °FPassing clouds.No wind93%29.83 "Hg4 mi
6:30 PM25 °FPartly sunny.1 mph93%29.83 "Hg4 mi
6:00 PM23 °FPartly sunny.1 mph93%29.83 "Hg4 mi
5:30 PM23 °FPartly sunny.1 mph93%29.83 "Hg4 mi
5:00 PM23 °FPartly sunny.No wind93%29.83 "Hg6 mi
Weather by CustomWeather, © 2014

See weather overviewHow to use our weather pages